Find Starlink 11253

NORAD ID: 60935 Int'l Des: 2024-155 Owner: SPXS Country: US Constellation: starlink operational
LEOCIRCULAR

現在のビュー

3D地球を読み込み中...

About Starlink 11253

Starlink 11253 (NORAD 60935) is a starlink constellation satellite (v2 mini d2c) launched Aug 31, 2024 by SPXS of US. It operates in LEO, CIRCULAR orbit with a mass of 960.00 kg.

Starlink 11253について

説明を読み込み中...

次回通過

Passes for default location (London). Set your location on the main map for personalized predictions.

高度履歴

Loading altitude history...

軌道要素

1 60935U 24155M 26171.35892056 .00002851 00000-0 28394-4 0 9991
2 60935 53.1597 195.4289 0001184 82.1478 277.9674 15.69702723104523
Epoch: Jun 20, 2026 • Age: 51 hours

現在のステータス

高度 361.8 km
速度 7.70 km/s
衛星直下点 35.37°N, 137.77°E
打ち上げ日 Aug 31, 2024
運用期間 1.8 years
タイプ internet

技術仕様

分類 Payload
質量 960.00 kg
乾燥質量 910.00 kg
総質量 960.00 kg
長さ 0.30 m
直径 4.10 m
スパン 29.00 m
形状 Box + pan
製造者 SPXS
バスタイプ Starlink V2MD
フェーズステータス In Orbit
所有者/国 SPXS/US

Most Searched